| time (UTC) | temp F | wind direction | speed MPH | gust MPH | rain 1hr in | rain 24hr in | rain mn in | humidity % | barometer mb |
| 20260902064517 | 93 | 205 | 6.0 | 15.0 | 0.00 | 0.00 | 0.00 | 23 | 949.6 |
| 20260902063022 | 93 | 158 | 7.0 | 16.0 | 0.00 | 0.00 | 0.00 | 22 | 949.5 |
| 20260902060020 | 92 | 131 | 6.0 | 10.0 | 0.00 | 0.00 | 0.00 | 22 | 949.3 |
| 20260902054515 | 92 | 148 | 6.0 | 13.0 | 0.00 | 0.00 | 0.00 | 22 | 949.3 |
| 20260902053017 | 93 | 143 | 7.0 | 11.0 | 0.00 | 0.00 | 0.00 | 21 | 949.4 |
| 20260902051513 | 93 | 145 | 7.0 | 15.0 | 0.00 | 0.00 | 0.00 | 21 | 949.6 |
| 20260902050013 | 93 | 155 | 7.0 | 13.0 | 0.00 | 0.00 | 0.00 | 21 | 949.5 |
| 20260902044513 | 93 | 144 | 7.0 | 16.0 | 0.00 | 0.00 | 0.00 | 21 | 949.6 |
| 20260902043012 | 94 | 145 | 7.0 | 13.0 | 0.00 | 0.00 | 0.00 | 20 | 949.5 |
| 20260902041512 | 94 | 197 | 9.0 | 17.0 | 0.00 | 0.00 | 0.00 | 20 | 949.4 |
| 20260902040013 | 94 | 198 | 8.0 | 16.0 | 0.00 | 0.00 | 0.00 | 20 | 949.2 |
| 20260902034511 | 94 | 193 | 6.0 | 14.0 | 0.00 | 0.00 | 0.00 | 20 | 949.1 |
| 20260902033009 | 94 | 206 | 9.0 | 14.0 | 0.00 | 0.00 | 0.00 | 20 | 948.8 |
| 20260902031510 | 95 | 230 | 7.0 | 14.0 | 0.00 | 0.00 | 0.00 | 19 | 948.6 |
| 20260902030007 | 95 | 184 | 8.0 | 13.0 | 0.00 | 0.00 | 0.00 | 20 | 948.4 |
| 20260902024518 | 96 | 217 | 6.0 | 16.0 | 0.00 | 0.00 | 0.00 | 19 | 948.2 |
| 20260902023006 | 97 | 206 | 8.0 | 16.0 | 0.00 | 0.00 | 0.00 | 19 | 948.2 |
| 20260902021505 | 97 | 219 | 9.0 | 16.0 | 0.00 | 0.00 | 0.00 | 19 | 947.9 |
| 20260902020006 | 98 | 206 | 11.0 | 22.0 | 0.00 | 0.00 | 0.00 | 19 | 947.8 |
| 20260902014606 | 99 | 195 | 12.0 | 21.0 | 0.00 | 0.00 | 0.00 | 18 | 947.9 |
| 20260902013005 | 99 | 225 | 15.0 | 24.0 | 0.00 | 0.00 | 0.00 | 18 | 947.8 |
| 20260902011502 | 100 | 172 | 9.0 | 23.0 | 0.00 | 0.00 | 0.00 | 18 | 947.8 |
| 20260902010002 | 100 | 243 | 11.0 | 28.0 | 0.00 | 0.00 | 0.00 | 18 | 947.9 |
| 20260902004559 | 100 | 233 | 14.0 | 25.0 | 0.00 | 0.00 | 0.00 | 20 | 948.0 |
| 20260902003058 | 100 | 205 | 18.0 | 33.0 | 0.00 | 0.00 | 0.00 | 21 | 948.2 |
| 20260902001556 | 100 | 168 | 14.0 | 23.0 | 0.00 | 0.00 | 0.00 | 27 | 948.3 |
| 20260902000100 | 100 | 205 | 13.0 | 21.0 | 0.00 | 0.00 | 0.00 | 28 | 948.2 |
| 20260901234553 | 99 | 172 | 15.0 | 24.0 | 0.00 | 0.00 | 0.00 | 28 | 948.4 |
| 20260901233049 | 99 | 152 | 13.0 | 28.0 | 0.00 | 0.00 | 0.00 | 30 | 948.6 |
| 20260901231547 | 99 | 148 | 11.0 | 25.0 | 0.00 | 0.00 | 0.00 | 30 | 948.7 |
| 20260901230041 | 99 | 203 | 14.0 | 25.0 | 0.00 | 0.00 | 0.00 | 30 | 948.8 |
| 20260901224538 | 99 | 205 | 12.0 | 25.0 | 0.00 | 0.00 | 0.00 | 29 | 949.0 |
| 20260901223043 | 98 | 229 | 13.0 | 24.0 | 0.00 | 0.00 | 0.00 | 30 | 949.1 |
| 20260901221533 | 99 | 195 | 14.0 | 24.0 | 0.00 | 0.00 | 0.00 | 29 | 949.3 |
| 20260901220036 | 98 | 139 | 13.0 | 25.0 | 0.00 | 0.00 | 0.00 | 30 | 949.4 |
| 20260901214525 | 98 | 203 | 14.0 | 28.0 | 0.00 | 0.00 | 0.00 | 31 | 949.5 |
| 20260901213023 | 97 | 151 | 16.0 | 27.0 | 0.00 | 0.00 | 0.00 | 31 | 949.8 |
| 20260901211517 | 98 | 7.0 | 25.0 | 0.00 | 0.00 | 0.00 | 30 | 950.0 | |
| 20260901210013 | 98 | 215 | 10.0 | 22.0 | 0.00 | 0.00 | 0.00 | 31 | 950.3 |
| 20260901204510 | 97 | 195 | 18.0 | 27.0 | 0.00 | 0.00 | 0.00 | 31 | 950.5 |
| 20260901203009 | 96 | 227 | 14.0 | 27.0 | 0.00 | 0.00 | 0.00 | 31 | 950.8 |
| 20260901201506 | 95 | 173 | 10.0 | 22.0 | 0.00 | 0.00 | 0.00 | 35 | 951.0 |
| 20260901200108 | 96 | 189 | 14.0 | 22.0 | 0.00 | 0.00 | 0.00 | 35 | 951.2 |
| 20260901194510 | 96 | 166 | 14.0 | 24.0 | 0.00 | 0.00 | 0.00 | 34 | 951.5 |
| 20260901193003 | 95 | 206 | 9.0 | 23.0 | 0.00 | 0.00 | 0.00 | 32 | 951.7 |
| 20260901191600 | 94 | 131 | 13.0 | 22.0 | 0.00 | 0.00 | 0.00 | 37 | 951.9 |
| 20260901190109 | 93 | 216 | 12.0 | 25.0 | 0.00 | 0.00 | 0.00 | 39 | 952.1 |
| 20260901184558 | 94 | 236 | 12.0 | 23.0 | 0.00 | 0.00 | 0.00 | 39 | 952.2 |
| 20260901183056 | 93 | 219 | 10.0 | 17.0 | 0.00 | 0.00 | 0.00 | 39 | 952.4 |
| 20260901181558 | 92 | 177 | 11.0 | 20.0 | 0.00 | 0.00 | 0.00 | 41 | 952.3 |
| 20260901180051 | 92 | 142 | 11.0 | 18.0 | 0.00 | 0.00 | 0.00 | 42 | 952.5 |
| 20260901174550 | 90 | 206 | 12.0 | 26.0 | 0.00 | 0.00 | 0.00 | 45 | 952.4 |
| 20260901173048 | 91 | 153 | 11.0 | 22.0 | 0.00 | 0.00 | 0.00 | 45 | 952.5 |
| 20260901171603 | 90 | 122 | 11.0 | 23.0 | 0.00 | 0.00 | 0.00 | 46 | 952.6 |
| 20260901170049 | 90 | 174 | 14.0 | 25.0 | 0.00 | 0.00 | 0.00 | 45 | 952.6 |
| 20260901164545 | 90 | 206 | 11.0 | 22.0 | 0.00 | 0.00 | 0.00 | 45 | 952.5 |
| 20260901163040 | 90 | 185 | 11.0 | 21.0 | 0.00 | 0.00 | 0.00 | 44 | 952.4 |
| 20260901161541 | 89 | 207 | 14.0 | 20.0 | 0.00 | 0.00 | 0.00 | 43 | 952.3 |
| 20260901160039 | 88 | 154 | 11.0 | 23.0 | 0.00 | 0.00 | 0.00 | 45 | 952.2 |
| 20260901154534 | 88 | 212 | 12.0 | 22.0 | 0.00 | 0.00 | 0.00 | 45 | 952.2 |
| 20260901153031 | 88 | 172 | 14.0 | 27.0 | 0.00 | 0.00 | 0.00 | 44 | 952.2 |
| 20260901151528 | 87 | 153 | 12.0 | 21.0 | 0.00 | 0.00 | 0.00 | 46 | 952.0 |
| 20260901150026 | 84 | 264 | 4.0 | 11.0 | 0.00 | 0.00 | 0.00 | 51 | 952.0 |
| 20260901144529 | 84 | 252 | 3.0 | 7.0 | 0.00 | 0.00 | 0.00 | 51 | 952.1 |
| 20260901143025 | 84 | 214 | 4.0 | 7.0 | 0.00 | 0.00 | 0.00 | 51 | 952.1 |
| 20260901141534 | 84 | 172 | 0.0 | 0.0 | 0.00 | 0.00 | 0.00 | 51 | 951.9 |
| 20260901140022 | 83 | 113 | 0.0 | 0.0 | 0.00 | 0.00 | 0.00 | 52 | 951.9 |
| 20260901134522 | 82 | 104 | 0.0 | 0.0 | 0.00 | 0.00 | 0.00 | 53 | 951.7 |
| 20260901133020 | 81 | 104 | 0.0 | 0.0 | 0.00 | 0.00 | 0.00 | 53 | 951.7 |
| 20260901131519 | 81 | 91 | 0.0 | 0.0 | 0.00 | 0.00 | 0.00 | 53 | 951.6 |
| 20260901130017 | 81 | 109 | 0.0 | 0.0 | 0.00 | 0.00 | 0.00 | 53 | 951.5 |
| 20260901124516 | 81 | 122 | 0.0 | 0.0 | 0.00 | 0.00 | 0.00 | 54 | 951.4 |
| 20260901123015 | 81 | 96 | 0.0 | 0.0 | 0.00 | 0.00 | 0.00 | 54 | 951.3 |
| 20260901121515 | 81 | 75 | 0.0 | 0.0 | 0.00 | 0.00 | 0.00 | 55 | 951.3 |
| 20260901120013 | 81 | 75 | 0.0 | 1.0 | 0.00 | 0.00 | 0.00 | 54 | 951.2 |
| 20260901114517 | 82 | 205 | 0.0 | 0.0 | 0.00 | 0.00 | 0.00 | 54 | 951.2 |
| 20260901113009 | 82 | 224 | 0.0 | 2.0 | 0.00 | 0.00 | 0.00 | 53 | 951.2 |
| 20260901111506 | 83 | 244 | 0.0 | 0.0 | 0.00 | 0.00 | 0.00 | 52 | 951.2 |
| 20260901110005 | 83 | 251 | 1.0 | 4.0 | 0.00 | 0.00 | 0.00 | 52 | 951.1 |
| 20260901104504 | 83 | 221 | 2.0 | 5.0 | 0.00 | 0.00 | 0.00 | 51 | 951.2 |
| 20260901103002 | 83 | 220 | 3.0 | 5.0 | 0.00 | 0.00 | 0.00 | 51 | 951.2 |
| 20260901101502 | 83 | 231 | 2.0 | 5.0 | 0.00 | 0.00 | 0.00 | 52 | 951.2 |
| 20260901100001 | 83 | 146 | 0.0 | 0.0 | 0.00 | 0.00 | 0.00 | 51 | 951.1 |
| 20260901094600 | 83 | 141 | 0.0 | 0.0 | 0.00 | 0.00 | 0.00 | 52 | 951.0 |
| 20260901093058 | 84 | 159 | 0.0 | 0.0 | 0.00 | 0.00 | 0.00 | 51 | 951.0 |
| 20260901091558 | 84 | 217 | 0.0 | 0.0 | 0.00 | 0.00 | 0.00 | 52 | 950.9 |
| 20260901090056 | 84 | 205 | 0.0 | 0.0 | 0.00 | 0.00 | 0.00 | 52 | 950.9 |
| 20260901084555 | 84 | 218 | 0.0 | 0.0 | 0.00 | 0.00 | 0.00 | 52 | 950.9 |
| 20260901083054 | 84 | 209 | 0.0 | 0.0 | 0.00 | 0.00 | 0.00 | 51 | 951.0 |
| 20260901081554 | 85 | 130 | 0.0 | 4.0 | 0.00 | 0.00 | 0.00 | 51 | 951.0 |
| 20260901080054 | 85 | 212 | 2.0 | 5.0 | 0.00 | 0.00 | 0.00 | 51 | 951.1 |
| 20260901074601 | 85 | 234 | 3.0 | 7.0 | 0.00 | 0.00 | 0.00 | 50 | 951.0 |
| 20260901073047 | 85 | 224 | 2.0 | 7.0 | 0.00 | 0.00 | 0.00 | 49 | 950.9 |
| 20260901071543 | 86 | 251 | 3.0 | 8.0 | 0.00 | 0.00 | 0.00 | 47 | 950.8 |
| 20260901070040 | 86 | 239 | 3.0 | 6.0 | 0.00 | 0.00 | 0.00 | 47 | 950.7 |